Preview of NWS' New Version of Forecast
This preview is not operational and should not be used for support decisions.

Regional Weather Roundup (RWR)

Issued by Philadelphia/Mt Holly (PHI)

                            
000
ASUS41 KPHI 221712
RWRPHI

REGIONAL WEATHER ROUNDUP
NATIONAL WEATHER SERVICE MOUNT HOLLY NJ
100 PM EDT FRI MAR 22 2019

NOTE:  "FAIR" INDICATES FEW OR NO CLOUDS BELOW 12,000 FEET WITH NO
SIGNIFICANT WEATHER AND/OR OBSTRUCTIONS TO VISIBILITY.

 * = STATION DOES NOT REPORT PRECIPITATION (E.G. RAIN, SNOW, ETC.) 
        OR FOG.

NJZ015>026-221800-
SOUTHERN NEW JERSEY
  
CITY           SKY/WX    TMP DP  RH WIND       PRES   REMARKS
POMONA         CLOUDY    47  34  60 W26G40    29.48R                  
WILDWOOD*      CLOUDY    47  34  60 W20G30    29.55R                  
MILLVILLE      CLOUDY    46  32  58 NW22G32   29.53R                  
MOUNT HOLLY    CLOUDY    47  30  51 W15G35    29.48S                  
TRENTON        CLOUDY    46  35  65 NW14G26   29.44F                  

$$
NJZ001>014-221800-
NORTHERN NEW JERSEY
  
CITY           SKY/WX    TMP DP  RH WIND       PRES   REMARKS
SUSSEX         CLOUDY    43  33  68 VRB7G25   29.39S                  
ANDOVER*         N/A     42  31  64 NW12G22   29.41S                  
MORRISTOWN     DRIZZLE   43  37  81 N13G30    29.42R                  
NEWARK         CLOUDY    45  35  68 NW25G36   29.39R                  
TETERBORO      CLOUDY    45  35  68 W18G29    29.37R                  
CALDWELL       CLOUDY    43  35  73 NW16G25   29.40R                  
SOMERVILLE     CLOUDY    45  34  65 NW20G26   29.42S                  
ALLAIRE*       CLOUDY    44  36  73 W23G33    29.41R                  
TOMS RIVER*    CLOUDY    45  38  76 W22G32    29.44R                  

$$
PAZ043-044-047-054-055-060>062-066>071-221800-
EASTERN PENNSYLVANIA
  
CITY           SKY/WX    TMP DP  RH WIND       PRES   REMARKS
PHILADELPHIA   PTSUNNY   47  29  49 NW25G33   29.51S                  
NORTH PHILA    PTSUNNY   51  31  46 NW28G41   29.49R                  
BLUE BELL*     CLOUDY    45  32  61 NW13G23   29.51S                  
DOYLESTOWN     CLOUDY    46  33  60 NW12G28   29.46S                  
QUAKERTOWN*    CLOUDY    45  32  61 NW15G24   29.49S                  
PERKASIE*      CLOUDY    43  32  65 NW18G35   29.49S                  
POTTSTOWN      CLOUDY    44  31  60 NW15G28   29.52S                  
LANCASTER      CLOUDY    46  31  55 NW23G33   29.56R                  
COATESVILLE    CLOUDY    45  32  61 NW22G35   29.54R                  
READING        CLOUDY    45  33  63 W26G35    29.52S                  
ALLENTOWN      CLOUDY    47  31  53 NW15G28   29.48S                  
MOUNT POCONO   CLOUDY    34  30  85 NW24G32   29.38S WCI  21          
HAZLETON       CLOUDY    37  28  70 W14G25    29.49S WCI  29          
LEHIGHTON      PTSUNNY   45  30  57 NW8G17    29.50R                  
WILKES BARRE   CLOUDY    40  31  70 NW15G24   29.46F WCI  32          

$$
DEZALL-MDZ008-012-015-019-020-221800-
DELAWARE AND EASTERN MARYLAND
  
CITY           SKY/WX    TMP DP  RH WIND       PRES   REMARKS
WILMINGTON     CLOUDY    49  31  49 NW22G41   29.55S                  
GEORGETOWN     LGT RAIN  52  32  46 NW17G28   29.57F                  
EASTON         MOSUNNY   52  34  50 W18G30    29.65S                  
PATUXENT       FAIR      54  34  46 W23G35    29.64S                  
OCEAN CITY     CLOUDY    49  33  54 NW16G36   29.58S                  
WALLOPS ISLAND PTSUNNY   52  31  44 NW23G39   29.62S                  
CAMBRIDGE      MOSUNNY   50  34  53 NW21G29   29.62F                  
SALISBURY      PTSUNNY   50  34  54 W18G35    29.60S                  

$$
PAZ001-021-NYZ056-072-MDZ011-DCZ001-221800-
OTHER NEARBY LOCATIONS
  
CITY           SKY/WX    TMP DP  RH WIND       PRES   REMARKS
HARRISBURG     PTSUNNY   45  31  58 NW20G28   29.59R                  
STATE COLLEGE  CLOUDY    41  32  70 W14G20    29.59F                  
WILLIAMSPORT   CLOUDY    45  29  53 NW15      29.54F                  
BINGHAMTON     CLOUDY    35  28  75 NW13G23   29.44S WCI  26          
NEW YORK CITY  CLOUDY    44  35  70 W12G22    29.39R                  
BALTIMORE      PTSUNNY   50  32  50 W24G36    29.61F                  
WASHINGTON DC  PTSUNNY   53  32  44 W20G31    29.65F                  

$$